• In Hungary
  • List of Countries
  • For 7 days
  • Water Temperature
  • Satellite Maps
  • Weather Map
  • News
  • Weather Widgets
  • user-avatar
    Login

    Hourly Weather San José de Maipo

    Today, 13 December, Wednesday

    Time Temperature Precipitation Wind Pressure Humidity
    00:00 +11°C° 0 mm 1 mps 608 mmHg 67%
    01:00 +10°C° 0 mm 2 mps 608 mmHg 68%
    02:00 +10°C° 0 mm 2 mps 608 mmHg 68%
    03:00 +9°C° 0 mm 2 mps 608 mmHg 68%
    04:00 +9°C° 0 mm 2 mps 608 mmHg 68%
    05:00 +10°C° 0 mm 2 mps 608 mmHg 58%
    06:00 +13°C° 0 mm 2 mps 609 mmHg 48%
    07:00 +14°C° 0 mm 2 mps 610 mmHg 38%
    08:00 +16°C° 0 mm 2 mps 610 mmHg 32%
    09:00 +17°C° 0 mm 2 mps 611 mmHg 26%
    10:00 +19°C° 0 mm 3 mps 612 mmHg 20%
    11:00 +20°C° 0 mm 3 mps 612 mmHg 19%
    12:00 +20°C° 0 mm 3 mps 612 mmHg 18%
    13:00 +21°C° 0 mm 4 mps 613 mmHg 17%
    14:00 +21°C° 0 mm 3 mps 612 mmHg 18%
    15:00 +21°C° 0 mm 3 mps 612 mmHg 19%
    16:00 +20°C° 0 mm 3 mps 612 mmHg 20%
    17:00 +19°C° 0 mm 3 mps 612 mmHg 24%
    18:00 +18°C° 0 mm 2 mps 611 mmHg 28%
    19:00 +16°C° 0 mm 2 mps 611 mmHg 32%
    20:00 +16°C° 0 mm 2 mps 611 mmHg 32%
    21:00 +15°C° 0 mm 1 mps 611 mmHg 33%
    22:00 +15°C° 0 mm 1 mps 611 mmHg 33%
    23:00 +14°C° 0 mm 1 mps 611 mmHg 32%

    Tomorrow, 14 December, Thursday

    Time Temperature Precipitation Wind Pressure Humidity
    00:00 +14°C° 0 mm 1 mps 610 mmHg 30%
    01:00 +14°C° 0 mm 1 mps 610 mmHg 29%
    02:00 +13°C° 0 mm 1 mps 609 mmHg 28%
    03:00 +13°C° 0 mm 1 mps 609 mmHg 28%
    04:00 +13°C° 0 mm 1 mps 609 mmHg 27%
    05:00 +15°C° 0 mm 1 mps 610 mmHg 23%
    06:00 +18°C° 0 mm 1 mps 611 mmHg 19%
    07:00 +20°C° 0 mm 1 mps 612 mmHg 15%
    08:00 +20°C° 0 mm 2 mps 612 mmHg 13%
    09:00 +23°C° 0 mm 2 mps 613 mmHg 11%
    10:00 +24°C° 0 mm 3 mps 613 mmHg 9%
    11:00 +25°C° 0 mm 3 mps 613 mmHg 9%
    12:00 +26°C° 0 mm 3 mps 613 mmHg 9%
    13:00 +27°C° 0 mm 3 mps 613 mmHg 9%
    14:00 +26°C° 0 mm 3 mps 613 mmHg 9%
    15:00 +26°C° 0 mm 3 mps 612 mmHg 9%
    16:00 +26°C° 0 mm 3 mps 612 mmHg 10%
    17:00 +24°C° 0 mm 3 mps 612 mmHg 11%
    18:00 +22°C° 0 mm 3 mps 611 mmHg 13%
    19:00 +20°C° 0 mm 2 mps 611 mmHg 15%
    20:00 +19°C° 0 mm 2 mps 611 mmHg 16%
    21:00 +20°C° 0 mm 1 mps 611 mmHg 17%
    22:00 +19°C° 0 mm 1 mps 610 mmHg 19%
    23:00 +18°C° 0 mm 1 mps 610 mmHg 18%

    Day after tomorrow, 15 December, Friday

    Time Temperature Precipitation Wind Pressure Humidity
    00:00 +18°C° 0 mm 1 mps 609 mmHg 17%
    01:00 +16°C° 0 mm 1 mps 609 mmHg 16%
    02:00 +15°C° 0 mm 1 mps 608 mmHg 16%
    03:00 +15°C° 0 mm 1 mps 608 mmHg 15%
    04:00 +15°C° 0 mm 1 mps 607 mmHg 14%
    05:00 +18°C° 0 mm 1 mps 609 mmHg 12%
    06:00 +20°C° 0 mm 1 mps 610 mmHg 11%
    07:00 +21°C° 0 mm 2 mps 611 mmHg 9%
    08:00 +24°C° 0 mm 2 mps 611 mmHg 8%
    09:00 +25°C° 0 mm 2 mps 611 mmHg 8%
    10:00 +26°C° 0 mm 3 mps 612 mmHg 7%
    11:00 +27°C° 0 mm 3 mps 611 mmHg 7%
    12:00 +28°C° 0 mm 3 mps 611 mmHg 7%
    13:00 +28°C° 0 mm 4 mps 611 mmHg 6%
    14:00 +28°C° 0 mm 4 mps 611 mmHg 7%
    15:00 +27°C° 0 mm 4 mps 611 mmHg 8%
    16:00 +27°C° 0 mm 4 mps 610 mmHg 9%
    17:00 +25°C° 0 mm 3 mps 610 mmHg 14%
    18:00 +22°C° 0 mm 3 mps 609 mmHg 18%
    19:00 +20°C° 0 mm 2 mps 609 mmHg 23%
    20:00 +19°C° 0 mm 2 mps 608 mmHg 26%
    21:00 +18°C° 0 mm 2 mps 608 mmHg 28%
    22:00 +18°C° 0 mm 1 mps 608 mmHg 31%
    23:00 +16°C° 0 mm 1 mps 607 mmHg 32%

    16 December, Saturday

    Time Temperature Precipitation Wind Pressure Humidity
    00:00 +16°C° 0 mm 1 mps 607 mmHg 33%
    01:00 +15°C° 0 mm 1 mps 606 mmHg 34%
    02:00 +15°C° 0 mm 1 mps 606 mmHg 35%
    03:00 +14°C° 0 mm 1 mps 605 mmHg 36%
    04:00 +14°C° 0 mm 1 mps 605 mmHg 37%
    05:00 +15°C° 0 mm 1 mps 606 mmHg 33%
    06:00 +17°C° 0 mm 2 mps 607 mmHg 29%
    07:00 +18°C° 0 mm 2 mps 608 mmHg 24%
    08:00 +19°C° 0 mm 2 mps 608 mmHg 21%
    09:00 +21°C° 0 mm 3 mps 609 mmHg 19%
    10:00 +22°C° 0 mm 3 mps 609 mmHg 16%
    11:00 +24°C° 0 mm 3 mps 610 mmHg 15%
    12:00 +23°C° 0 mm 4 mps 610 mmHg 15%
    13:00 +25°C° 0 mm 4 mps 610 mmHg 15%
    14:00 +25°C° 0 mm 4 mps 610 mmHg 16%
    15:00 +23°C° 0 mm 4 mps 610 mmHg 17%
    16:00 +23°C° 0 mm 4 mps 609 mmHg 18%
    17:00 +22°C° 0 mm 3 mps 609 mmHg 21%
    18:00 +20°C° 0 mm 3 mps 609 mmHg 24%
    19:00 +19°C° 0 mm 2 mps 609 mmHg 27%
    20:00 +18°C° 0 mm 2 mps 609 mmHg 28%
    21:00 +18°C° 0 mm 2 mps 609 mmHg 28%
    22:00 +18°C° 0 mm 1 mps 609 mmHg 29%
    23:00 +18°C° 0 mm 1 mps 609 mmHg 31%

    17 December, Sunday

    Time Temperature Precipitation Wind Pressure Humidity
    00:00 +16°C° 0 mm 1 mps 608 mmHg 32%
    01:00 +16°C° 0 mm 1 mps 608 mmHg 33%
    02:00 +15°C° 0 mm 1 mps 608 mmHg 32%
    03:00 +15°C° 0 mm 1 mps 608 mmHg 31%
    04:00 +15°C° 0 mm 1 mps 608 mmHg 31%
    05:00 +17°C° 0 mm 2 mps 609 mmHg 25%
    06:00 +18°C° 0 mm 2 mps 610 mmHg 20%
    07:00 +20°C° 0 mm 2 mps 611 mmHg 15%
    08:00 +23°C° 0 mm 2 mps 611 mmHg 13%
    09:00 +24°C° 0 mm 3 mps 612 mmHg 12%
    10:00 +26°C° 0 mm 3 mps 612 mmHg 10%
    11:00 +26°C° 0 mm 4 mps 612 mmHg 10%
    12:00 +27°C° 0 mm 4 mps 612 mmHg 11%
    13:00 +27°C° 0 mm 4 mps 612 mmHg 11%
    14:00 +27°C° 0 mm 4 mps 612 mmHg 12%
    15:00 +26°C° 0 mm 4 mps 612 mmHg 13%
    16:00 +26°C° 0 mm 4 mps 612 mmHg 14%
    17:00 +24°C° 0 mm 3 mps 612 mmHg 17%
    18:00 +21°C° 0 mm 3 mps 611 mmHg 20%
    19:00 +19°C° 0 mm 2 mps 611 mmHg 23%
    20:00 +19°C° 0 mm 2 mps 611 mmHg 24%
    21:00 +19°C° 0 mm 1 mps 611 mmHg 26%
    22:00 +18°C° 0 mm 1 mps 610 mmHg 27%
    23:00 +18°C° 0 mm 1 mps 610 mmHg 27%

    18 December, Monday

    Time Temperature Precipitation Wind Pressure Humidity
    00:00 +18°C° 0 mm 1 mps 609 mmHg 27%
    01:00 +16°C° 0 mm 1 mps 609 mmHg 27%
    02:00 +16°C° 0 mm 1 mps 609 mmHg 26%
    03:00 +16°C° 0 mm 1 mps 608 mmHg 24%
    04:00 +15°C° 0 mm 1 mps 608 mmHg 23%
    05:00 +18°C° 0 mm 1 mps 609 mmHg 20%
    06:00 +20°C° 0 mm 1 mps 610 mmHg 18%
    07:00 +20°C° 0 mm 2 mps 611 mmHg 15%
    08:00 +21°C° 0 mm 2 mps 611 mmHg 14%
    09:00 +24°C° 0 mm 3 mps 611 mmHg 12%
    10:00 +25°C° 0 mm 3 mps 612 mmHg 10%
    11:00 +26°C° 0 mm 4 mps 612 mmHg 10%
    12:00 +26°C° 0 mm 4 mps 612 mmHg 10%
    13:00 +26°C° 0 mm 4 mps 612 mmHg 11%
    14:00 +26°C° 0 mm 4 mps 612 mmHg 12%
    15:00 +25°C° 0 mm 4 mps 611 mmHg 14%
    16:00 +25°C° 0 mm 4 mps 611 mmHg 15%
    17:00 +22°C° 0 mm 3 mps 611 mmHg 18%
    18:00 +21°C° 0 mm 2 mps 610 mmHg 21%
    19:00 +19°C° 0 mm 2 mps 610 mmHg 24%
    20:00 +18°C° 0 mm 2 mps 610 mmHg 26%
    21:00 +19°C° 0 mm 1 mps 610 mmHg 28%
    22:00 +18°C° 0 mm 1 mps 609 mmHg 30%
    23:00 +18°C° 0 mm 1 mps 609 mmHg 29%
    Show more